sat.trackr.live / text

‹ back to catalog

STARLINK-4477

NORAD 53546 · 2022-101V

PAYLOAD ACTIVE UNKNOWN

§ Identity

Operator
Country
US
Launch date
2022-08-19
Launch site
AFETR
Launch vehicle
Mass (kg)
RCS (m²)

Purposes: comms

External: N2YO · Heavens-Above · Gunter

§ Orbital elements

Epoch: 2026-09-19T23:06:57.646944Z

Period
93.85 min
Inclination
53.1619°
Eccentricity
0.0001483
Mean motion
15.34387638 rev/d
Perigee alt
461.7 km
Apogee alt
463.8 km
Semi-major
6,840.9 km
B*
1.0352e-5
RAAN
245.8941°
Arg perigee
95.0123°
Mean anomaly
265.1049°
Rev number
22,599

§ Raw data

STARLINK-44771 53546U 22101V   26262.96316721 -.00000027  00000+0  10352-4 0  99962 53546  53.1619 245.8941 0001483  95.0123 265.1049 15.34387638225991

JSON: /api/v1/satellites/53546 · /tle

For live sub-satellite position, see the globe view (requires WebGL).

§ Visibility from observer

Set your observer location to see the next 7 days of passes ≥ 10°. The values pass through the URL so the page stays shareable.

No JS? Fill the form by hand. The geolocation button needs JavaScript.